Leader, Saskatchewan

11:46 PM CST on November 17, 2017 (GMT -0600)
Leader

Weather History for CWJX - September, 2013

Change the Weather History Date:

Thursday, September 12, 2013

  Actual Average Record
Temperature  
Mean Temperature 62 °F -  
Max Temperature 82 °F - - ()
Min Temperature 43 °F - - ()
Degree Days  
Heating Degree Days 2    
Growing Degree Days 12 (Base 50)    
Moisture  
Dew Point 38 °F    
Average Humidity 46    
Maximum Humidity 79    
Minimum Humidity 16    
Precipitation  
Precipitation 0.00 in - - ()
Sea Level Pressure  
Sea Level Pressure 30.19 in    
Wind  
Wind Speed 7 mph ()    
Max Wind Speed 12 mph    
Max Gust Speed 20 mph    
T = Trace of Precipitation, MM = Missing Value Source: Averaged Metar Reports

Daily Weather History Graph

Daily Weather History Graph

Search for Another Location

Airport or City:

Trip Planner

Search our weather history database for the weather conditions in past years. The results will help you decide how hot, cold, wet, or windy it might be!

Date:

Astronomy

Sep. 12, 2013 Rise Set
Actual Time 6:49 AM CST 7:38 PM CST
Civil Twilight 6:15 AM CST 8:11 PM CST
Nautical Twilight 5:35 AM CST 8:51 PM CST
Astronomical Twilight 4:53 AM CST 9:33 PM CST
Moon 3:03 PM CST (9/12) 11:54 PM CST (9/12)
Length of Visible Light 13h 55m
Length of Day
12h 48m
Waxing Crescent, 51% of the Moon is Illuminated
Sep 12
Waxing Crescent
Sep 19
Full
Sep 26
Last Quarter
Oct 4
New
Oct 11
First Quarter

Hourly Weather History & Observations

Time (CST) Temp. Windchill Dew Point Humidity Pressure Visibility Wind Dir Wind Speed Gust Speed Precip Events Conditions
12:00 AM 50 °F - 33 °F 41% 30.30 in - ESE 5.8 mph - -  
12:00 AM 49.6 °F - 33.4 °F 54% 30.30 in - ESE 5.8 mph - N/A   Unknown
1:00 AM 48.4 °F - 34.3 °F 58% 30.29 in - SE 8.1 mph - N/A   Unknown
2:00 AM 47.8 °F - 36.1 °F 64% 30.28 in - SSE 10.4 mph - N/A   Unknown
3:00 AM 46.9 °F - 37.6 °F 70% 30.28 in - SE 5.8 mph - N/A   Unknown
4:00 AM 47.7 °F - 39.6 °F 73% 30.27 in - ESE 5.8 mph - N/A   Unknown
5:00 AM 44.8 °F 42.4 °F 38.7 °F 79% 30.28 in - SE 4.6 mph - N/A   Unknown
6:00 AM 44 °F - 37 °F 69% 30.27 in - ESE 3.5 mph - -  
6:00 AM 43.9 °F 42.3 °F 37.2 °F 77% 30.27 in - ESE 3.5 mph - N/A   Unknown
7:00 AM 44.1 °F 42.5 °F 36.9 °F 76% 30.29 in - ESE 3.5 mph - N/A   Unknown
8:00 AM 49.5 °F - 40.8 °F 72% 30.29 in - ESE 3.5 mph - N/A   Unknown
9:00 AM 60.4 °F - 41.4 °F 49% 30.27 in - SSE 8.1 mph - N/A   Unknown
10:00 AM 66.7 °F - 43.3 °F 43% 30.26 in - South 8.1 mph - N/A   Unknown
11:00 AM 72.3 °F - 42.3 °F 34% 30.24 in - SSE 8.1 mph - N/A   Unknown
12:00 PM 77 °F - 39 °F 16% 30.21 in - SSE 11.5 mph - -  
12:00 PM 77.0 °F - 39.2 °F 26% 30.21 in - SSE 11.5 mph - N/A   Unknown
1:00 PM 78.4 °F - 38.3 °F 24% 30.19 in - SSE 11.5 mph - N/A   Unknown
2:00 PM 79.5 °F - 38.1 °F 23% 30.16 in - SSE 10.4 mph 17.3 mph N/A   Unknown
3:00 PM 82.0 °F - 38.5 °F 21% 30.13 in - SSE 10.4 mph - N/A   Unknown
4:00 PM 82.2 °F - 38.1 °F 21% 30.11 in - SSE 11.5 mph 19.6 mph N/A   Unknown
5:00 PM 82.6 °F - 36.1 °F 19% 30.09 in - SSE 11.5 mph - N/A   Unknown
6:00 PM 80.8 °F - 36.0 °F 20% 30.07 in - SSE 11.5 mph - N/A   Unknown
7:00 PM 76.6 °F - 38.1 °F 25% 30.05 in - SSE 8.1 mph - N/A   Unknown
8:00 PM 67.5 °F - 38.8 °F 35% 30.04 in - SE 9.2 mph - N/A   Unknown
9:00 PM 61.2 °F - 40.8 °F 47% 30.04 in - SE 11.5 mph - N/A   Unknown
10:00 PM 59.2 °F - 42.1 °F 53% 30.01 in - SSE 10.4 mph - N/A   Unknown
11:00 PM 57.0 °F - 43.3 °F 60% 30.00 in - SSE 11.5 mph - N/A   Unknown